Location: Ladysmith
(45.4630°N, 91.1040°W)
Time: 06:55:10
(UTC-05:00)

Amateur Radio Satellites - All Passes

Search period start: 25 October 2014 06:25
Search period end: 26 October 2014 06:25
Location: Ladysmith, 45.4630°N, 91.1040°W

Satellite Date Start Highest point End Downlink Frequencies (MHz)
Time Altitude Azimuth
PCSat 25 Oct 06:33:59 06:37:36 18° 325° (NW) 06:41:13 145.825 MHz
OPAL 25 Oct 06:51:08 06:53:50 14° 269° (W) 06:56:33 ?
STRAND 1 25 Oct 06:54:12 06:59:20 79° 74° (ENE) 07:04:30 ?
Hamsat 25 Oct 06:57:25 07:01:37 77° 102° (ESE) 07:05:50 145.90 MHz
Uosat F 25 Oct 07:39:17 07:40:56 12° 306° (NW) 07:42:34 435.120 FM
JAS-2 25 Oct 07:39:39 07:47:01 51° 293° (WNW) 07:54:30 435.800 - 435.900 CW/SSB, 435.910 FM
RS-15 25 Oct 07:47:50 07:58:58 78° 239° (WSW) 08:10:35 29.354 - 29.394 USB, Beacon 29.352 USB
Saudisat 1A 25 Oct 07:51:21 07:55:36 51° 120° (ESE) 07:59:53 436.775 MHz
SO-67 25 Oct 07:57:00 08:00:21 46° 99° (E) 08:03:40 435.3500 MHz FM
AO-7 25 Oct 08:05:02 08:10:37 21° 314° (NW) 08:16:13 29.400 - 29.500 MHz
HO-68 25 Oct 08:30:59 08:34:32 14° 86° (E) 08:38:05 435.675 MHz FM
Hamsat 25 Oct 08:35:25 08:36:59 12° 300° (WNW) 08:38:33 145.90 MHz
STRAND 1 25 Oct 08:36:31 08:39:08 14° 272° (W) 08:41:47 ?
JAS-2 25 Oct 09:27:18 09:30:23 13° 313° (NW) 09:33:29 435.800 - 435.900 CW/SSB, 435.910 FM
SO-67 25 Oct 09:31:24 09:32:56 13° 296° (WNW) 09:34:28 435.3500 MHz FM
Saudisat 1A 25 Oct 09:31:46 09:35:26 25° 320° (NW) 09:39:07 436.775 MHz
MaSat-1 25 Oct 09:36:03 09:38:38 49° 245° (WSW) 09:41:00 437.345 MHz
RS-15 25 Oct 10:02:09 10:09:32 21° 261° (W) 10:17:07 29.354 - 29.394 USB, Beacon 29.352 USB
UKube-1 25 Oct 10:09:05 10:12:49 27° 95° (E) 10:16:31 145.840 MHz, 145.915 MHz
HO-68 25 Oct 10:16:10 10:23:25 76° 105° (ESE) 10:30:36 435.675 MHz FM
FUNcube-1 25 Oct 10:49:21 10:53:05 29° 95° (E) 10:56:43 145.950 - 145.970 MHz USB
Oscar 11 25 Oct 10:49:46 10:54:05 69° 102° (ESE) 10:58:22 145.825 FM, Beacon 2401.500 USB
Sapphire 25 Oct 11:28:29 11:32:27 20° 37° (NE) 11:36:23 437.095 MHz 1200 baud AX-25 AFSK
ZACube-1 25 Oct 11:40:39 11:44:57 79° 285° (WNW) 11:49:07 437.345 MHz
UKube-1 25 Oct 11:45:07 11:49:00 32° 293° (WNW) 11:52:52 145.840 MHz, 145.915 MHz
Oscar 10/S400 25 Oct 11:45:28 11:57:49 16° 149° (SSE) 12:08:02 145.825 - 145.975 CW/USB, Beacon 145.810 USB
PCSat 25 Oct 11:50:42 11:55:20 28° 43° (NE) 11:59:57 145.825 MHz
KITSAT 1 25 Oct 11:56:33 12:03:56 41° 111° (ESE) 12:11:21 435.175 FM
SO-50 25 Oct 11:57:34 11:58:54 11° 107° (ESE) 12:00:16 436.795 FM
HO-68 25 Oct 12:04:49 12:10:27 26° 305° (NW) 12:16:04 435.675 MHz FM
Oscar 16 25 Oct 12:22:08 12:25:42 19° 60° (ENE) 12:29:16 437.025 USB, Beacon 2401.1428
FUNcube-1 25 Oct 12:25:47 12:29:25 28° 293° (WNW) 12:32:58 145.950 - 145.970 MHz USB
Oscar 11 25 Oct 12:27:34 12:29:44 14° 300° (WNW) 12:31:54 145.825 FM, Beacon 2401.500 USB
Uribyol 2 25 Oct 12:43:57 12:46:36 14° 56° (NE) 12:49:15 436.500 FM
ITAMSAT 1 25 Oct 12:49:53 12:52:45 15° 57° (ENE) 12:55:36 435.822 SSB
ISS 25 Oct 12:56:56 13:00:01 35° 142° (SE) 13:03:06 145.800 FM
Sapphire 25 Oct 13:11:11 13:16:40 88° 58° (ENE) 13:22:06 437.095 MHz 1200 baud AX-25 AFSK
Oscar 19 25 Oct 13:13:44 13:18:40 49° 70° (ENE) 13:23:38 437.125 CW, 437.150 USB
Gurwin Techsat 1B 25 Oct 13:13:52 13:16:20 13° 55° (NE) 13:18:48 435.225 FM
TMSAT-1 25 Oct 13:25:02 13:27:12 13° 55° (NE) 13:29:21 436.925 FM
JAS-1B 25 Oct 13:31:40 13:37:26 61° 70° (ENE) 13:43:02 435.800 - 435.900 CW/SSB
AO-27 25 Oct 13:33:27 13:38:05 34° 65° (ENE) 13:42:46 436.795 MHz FM
PCSat 25 Oct 13:33:47 13:39:07 59° 243° (WSW) 13:44:25 145.825 MHz
AO-7 25 Oct 13:33:53 13:37:04 13° 37° (NE) 13:40:14 29.400 - 29.500 MHz
SO-50 25 Oct 13:34:09 13:38:40 88° 127° (SE) 13:43:21 436.795 FM
AO-Echo 25 Oct 13:49:26 13:54:13 54° 71° (ENE) 13:59:11 ?
KITSAT 1 25 Oct 13:51:16 13:59:09 55° 312° (NW) 14:07:05 435.175 FM
Oscar 16 25 Oct 13:59:26 14:04:34 66° 258° (WSW) 14:09:42 437.025 USB, Beacon 2401.1428
Uribyol 2 25 Oct 14:20:04 14:25:17 87° 75° (ENE) 14:30:34 436.500 FM
ITAMSAT 1 25 Oct 14:26:17 14:31:30 88° 255° (WSW) 14:36:47 435.822 SSB
ISS 25 Oct 14:33:26 14:36:40 45° 340° (NNW) 14:39:54 145.800 FM
Saudisat 1A 25 Oct 14:37:15 14:40:03 16° 33° (NNE) 14:42:50 436.775 MHz
Gurwin Techsat 1B 25 Oct 14:50:09 14:55:27 81° 74° (ENE) 15:00:48 435.225 FM
UOSAT-12 25 Oct 14:54:06 14:58:39 56° 121° (ESE) 15:03:17 437.025 FM, 437.400 FM
Oscar 19 25 Oct 14:54:15 14:58:17 23° 267° (W) 15:02:19 437.125 CW, 437.150 USB
Sapphire 25 Oct 14:56:29 14:59:18 14° 257° (WSW) 15:02:06 437.095 MHz 1200 baud AX-25 AFSK
TMSAT-1 25 Oct 15:00:56 15:06:13 76° 74° (ENE) 15:11:33 436.925 FM
AO-27 25 Oct 15:12:49 15:17:33 35° 263° (W) 15:22:21 436.795 MHz FM
SO-50 25 Oct 15:16:37 15:19:53 19° 326° (NNW) 15:23:14 436.795 FM
AO-7 25 Oct 15:20:04 15:27:47 46° 60° (ENE) 15:35:32 29.400 - 29.500 MHz
JAS-1B 25 Oct 15:24:37 15:28:40 19° 269° (W) 15:32:38 435.800 - 435.900 CW/SSB
AO-Echo 25 Oct 15:29:47 15:33:21 20° 269° (W) 15:37:02 ?
Uosat F 25 Oct 15:35:46 15:39:56 27° 64° (ENE) 15:44:09 435.120 FM
KITSAT 1 25 Oct 15:50:39 15:56:35 22° 338° (NNW) 16:02:32 435.175 FM
Uribyol 2 25 Oct 16:03:08 16:05:27 13° 272° (W) 16:07:48 436.500 FM
ITAMSAT 1 25 Oct 16:09:49 16:11:45 12° 273° (W) 16:13:41 435.822 SSB
JAS-2 25 Oct 16:10:53 16:15:26 22° 54° (NE) 16:20:23 435.800 - 435.900 CW/SSB, 435.910 FM
ISS 25 Oct 16:10:57 16:13:52 27° 360° (N) 16:16:47 145.800 FM
Saudisat 1A 25 Oct 16:15:53 16:20:20 79° 53° (NE) 16:24:46 436.775 MHz
Gurwin Techsat 1B 25 Oct 16:33:18 16:36:04 14° 272° (W) 16:38:52 435.225 FM
UOSAT-12 25 Oct 16:35:11 16:39:07 26° 321° (NW) 16:43:06 437.025 FM, 437.400 FM
TMSAT-1 25 Oct 16:43:41 16:46:44 15° 271° (W) 16:49:48 436.925 FM
AO-7 25 Oct 17:12:42 17:20:33 47° 260° (W) 17:28:29 29.400 - 29.500 MHz
Uosat F 25 Oct 17:13:47 17:18:32 42° 261° (W) 17:23:19 435.120 FM
OPAL 25 Oct 17:18:22 17:21:22 16° 92° (E) 17:24:21 ?
AO-40 25 Oct 17:45:26 23:28:33 37° 184° (S) 05:12:27 Beacon 2401.320
ISS 25 Oct 17:47:51 17:51:05 45° 20° (NNE) 17:54:19 145.800 FM
KITSAT 1 25 Oct 17:50:25 17:55:33 18° 9° (N) 18:00:40 435.175 FM
Hamsat 25 Oct 17:52:35 17:56:46 71° 75° (ENE) 18:00:57 145.90 MHz
JAS-2 25 Oct 17:53:34 17:59:35 80° 257° (WSW) 18:06:30 435.800 - 435.900 CW/SSB, 435.910 FM
Saudisat 1A 25 Oct 17:57:15 17:59:17 13° 251° (WSW) 18:01:20 436.775 MHz
SO-67 25 Oct 18:32:05 18:34:48 22° 68° (ENE) 18:37:31 435.3500 MHz FM
OPAL 25 Oct 18:55:48 19:00:45 68° 290° (WNW) 19:05:39 ?
HO-68 25 Oct 19:02:57 19:07:09 17° 48° (NE) 19:11:22 435.675 MHz FM
STRAND 1 25 Oct 19:03:19 19:07:21 23° 93° (E) 19:11:21 ?
ISS 25 Oct 19:24:38 19:27:45 36° 218° (SW) 19:30:50 145.800 FM
Hamsat 25 Oct 19:31:59 19:33:12 11° 272° (W) 19:34:26 145.90 MHz
JAS-2 25 Oct 19:43:08 19:46:00 13° 279° (W) 19:49:00 435.800 - 435.900 CW/SSB, 435.910 FM
KITSAT 1 25 Oct 19:46:33 19:53:49 35° 38° (NE) 20:01:03 435.175 FM
SO-67 25 Oct 20:04:52 20:07:41 23° 265° (W) 20:10:32 435.3500 MHz FM
RS-15 25 Oct 20:12:28 20:14:35 11° 93° (E) 20:16:41 29.354 - 29.394 USB, Beacon 29.352 USB
SO-50 25 Oct 20:23:35 20:27:40 26° 40° (NE) 20:31:46 436.795 FM
OPAL 25 Oct 20:37:36 20:38:42 11° 309° (NW) 20:39:49 ?
STRAND 1 25 Oct 20:41:50 20:46:49 50° 290° (WNW) 20:51:45 ?
HO-68 25 Oct 20:46:33 20:53:39 71° 69° (ENE) 21:00:48 435.675 MHz FM
ZACube-1 25 Oct 21:05:07 21:07:25 14° 60° (ENE) 21:09:41 437.345 MHz
UKube-1 25 Oct 21:06:34 21:10:25 32° 67° (ENE) 21:14:17 145.840 MHz, 145.915 MHz
KITSAT 1 25 Oct 21:41:53 21:49:57 75° 241° (WSW) 21:57:59 435.175 FM
UOSAT-12 25 Oct 21:42:16 21:45:39 19° 34° (NNE) 21:49:00 437.025 FM, 437.400 FM
Oscar 11 25 Oct 21:46:40 21:50:58 71° 74° (ENE) 21:55:18 145.825 FM, Beacon 2401.500 USB
FUNcube-1 25 Oct 21:47:28 21:51:33 33° 68° (ENE) 21:55:35 145.950 - 145.970 MHz USB
SO-50 25 Oct 22:03:48 22:08:33 58° 239° (WSW) 22:13:20 436.795 FM
RS-15 25 Oct 22:13:38 22:24:12 57° 114° (ESE) 22:34:43 29.354 - 29.394 USB, Beacon 29.352 USB
HO-68 25 Oct 22:36:21 22:41:58 24° 268° (W) 22:47:37 435.675 MHz FM
ZACube-1 25 Oct 22:38:39 22:43:14 77° 258° (WSW) 22:47:46 437.345 MHz
UKube-1 25 Oct 22:42:54 22:46:36 27° 264° (W) 22:50:21 145.840 MHz, 145.915 MHz
MaSat-1 25 Oct 23:14:31 23:17:44 23° 110° (ESE) 23:20:43 437.345 MHz
UOSAT-12 25 Oct 23:21:43 23:26:29 89° 54° (NE) 23:31:09 437.025 FM, 437.400 FM
FUNcube-1 25 Oct 23:24:01 23:27:56 28° 265° (W) 23:31:49 145.950 - 145.970 MHz USB
Oscar 11 25 Oct 23:26:01 23:27:39 12° 271° (W) 23:29:17 145.825 FM, Beacon 2401.500 USB
KITSAT 1 25 Oct 23:39:33 23:43:59 16° 260° (W) 23:48:25 435.175 FM
RS-15 26 Oct 00:26:09 00:36:44 52° 320° (NW) 00:47:26 29.354 - 29.394 USB, Beacon 29.352 USB
Oscar 10/S400 26 Oct 00:27:45 01:26:51 25° 232° (SW) 04:33:43 145.825 - 145.975 CW/USB, Beacon 145.810 USB
MaSat-1 26 Oct 00:49:34 00:53:13 33° 304° (WNW) 00:56:31 437.345 MHz
UOSAT-12 26 Oct 01:03:57 01:05:54 13° 252° (WSW) 01:07:50 437.025 FM, 437.400 FM
JAS-1B 26 Oct 01:12:54 01:16:50 16° 89° (E) 01:21:06 435.800 - 435.900 CW/SSB
Oscar 19 26 Oct 01:24:34 01:27:17 14° 89° (E) 01:30:00 437.125 CW, 437.150 USB
AO-Echo 26 Oct 01:55:30 01:58:45 16° 89° (E) 02:01:59 ?
Oscar 16 26 Oct 02:09:03 02:13:48 37° 97° (E) 02:18:31 437.025 USB, Beacon 2401.1428
Uribyol 2 26 Oct 02:31:11 02:35:31 26° 94° (E) 02:39:49 436.500 FM
ITAMSAT 1 26 Oct 02:37:27 02:41:55 28° 95° (E) 02:46:21 435.822 SSB
PCSat 26 Oct 02:37:53 02:40:05 13° 102° (ESE) 02:42:18 145.825 MHz
RS-15 26 Oct 02:43:18 02:52:22 28° 352° (N) 03:01:36 29.354 - 29.394 USB, Beacon 29.352 USB
JAS-1B 26 Oct 03:01:27 03:08:07 83° 105° (ESE) 03:16:06 435.800 - 435.900 CW/SSB
Oscar 19 26 Oct 03:02:06 03:07:13 77° 286° (WNW) 03:12:20 437.125 CW, 437.150 USB
Gurwin Techsat 1B 26 Oct 03:04:38 03:09:09 27° 94° (E) 03:13:37 435.225 FM
TMSAT-1 26 Oct 03:15:07 03:19:30 25° 93° (E) 03:23:50 436.925 FM
AO-27 26 Oct 03:22:57 03:28:12 71° 103° (ESE) 03:33:24 436.795 MHz FM
AO-Echo 26 Oct 03:32:44 03:38:03 74° 286° (WNW) 03:43:20 ?
Oscar 16 26 Oct 03:48:36 03:53:04 31° 295° (WNW) 03:57:30 437.025 USB, Beacon 2401.1428
Sapphire 26 Oct 03:55:03 04:00:17 52° 115° (ESE) 04:05:33 437.095 MHz 1200 baud AX-25 AFSK
Uribyol 2 26 Oct 04:10:14 04:15:10 44° 292° (WNW) 04:20:04 436.500 FM
ITAMSAT 1 26 Oct 04:16:38 04:21:32 42° 292° (WNW) 04:26:24 435.822 SSB
PCSat 26 Oct 04:17:13 04:22:38 84° 120° (ESE) 04:28:05 145.825 MHz
OPAL 26 Oct 04:34:33 04:39:18 39° 65° (ENE) 04:44:00 ?
Oscar 19 26 Oct 04:43:49 04:45:42 12° 305° (NW) 04:47:36 437.125 CW, 437.150 USB
Gurwin Techsat 1B 26 Oct 04:44:15 04:49:16 43° 292° (WNW) 04:54:15 435.225 FM
JAS-1B 26 Oct 04:53:30 04:58:14 22° 302° (WNW) 05:03:30 435.800 - 435.900 CW/SSB
TMSAT-1 26 Oct 04:54:33 04:59:37 46° 291° (WNW) 05:04:40 436.925 FM
RS-15 26 Oct 04:58:56 05:08:55 37° 27° (NNE) 05:19:10 29.354 - 29.394 USB, Beacon 29.352 USB
JAS-2 26 Oct 05:01:17 05:06:17 18° 85° (E) 05:11:16 435.800 - 435.900 CW/SSB, 435.910 FM
AO-27 26 Oct 05:03:40 05:07:09 18° 301° (WNW) 05:10:37 436.795 MHz FM
AO-7 26 Oct 05:11:01 05:19:10 55° 102° (ESE) 05:27:17 29.400 - 29.500 MHz
AO-Echo 26 Oct 05:13:48 05:15:54 12° 305° (NW) 05:18:01 ?
Uosat F 26 Oct 05:18:54 05:23:50 50° 100° (E) 05:28:43 435.120 FM
Hamsat 26 Oct 05:38:31 05:39:28 11° 88° (E) 05:40:26 145.90 MHz
Sapphire 26 Oct 05:39:14 05:43:58 30° 316° (NW) 05:48:44 437.095 MHz 1200 baud AX-25 AFSK
PCSat 26 Oct 06:02:37 06:06:44 21° 321° (NW) 06:10:52 145.825 MHz
OPAL 26 Oct 06:13:47 06:18:14 30° 262° (W) 06:22:41 ?
